Winona, MN

11:50 AM CST on November 15, 2019 (GMT -0600)
Winona Municipal-Conrad

Weather History for KONA - June, 2019

Change the Weather History Date:

Friday, June 14, 2019

  Actual Average Record
Temperature  
Mean Temperature 65 °F -  
Max Temperature 77 °F 83 °F 90 °F (1992)
Min Temperature 53 °F 61 °F 53 °F (1997)
Growing Degree Days 15 (Base 50)    
Moisture  
Dew Point 52 °F    
Average Humidity 57    
Maximum Humidity 77    
Minimum Humidity 42    
Precipitation  
Precipitation 0.22 in - - ()
Sea Level Pressure  
Sea Level Pressure 29.78 in    
Wind  
Wind Speed 5 mph (SW)    
Max Wind Speed 16 mph    
Max Gust Speed 26 mph    
Visibility 10 miles    
Events Rain , Thunderstorm    
Averages and records for this station are not official NWS values.
T = Trace of Precipitation, MM = Missing Value Source: NWS Daily Summary

Daily Weather History Graph

Daily Weather History Graph

Search for Another Location

Airport or City:

Astronomy

Jun. 14, 2019 Rise Set
Actual Time 5:23 AM CDT 8:51 PM CDT
Civil Twilight 4:46 AM CDT 9:27 PM CDT
Nautical Twilight 3:59 AM CDT 10:15 PM CDT
Astronomical Twilight 2:58 AM CDT 11:16 PM CDT
Moon 6:07 PM CDT (6/14) 3:48 AM CDT (6/14)
Length of Visible Light 16h 40m
Length of Day
15h 28m
Waxing Gibbous, 92% of the Moon is Illuminated
Jun 14
Waxing Gibbous
Jun 17
Full
Jun 25
Last Quarter
Jul 2
New
Jul 9
First Quarter

Hourly Weather History & Observations

Time (CDT) Temp. Dew Point Humidity Pressure Visibility Wind Dir Wind Speed Gust Speed Precip Events Conditions
12:15 AM 53.6 °F 44.6 °F 72% 29.95 in 10.0 mi Calm Calm - N/A   Clear
12:16 AM 53.6 °F 44.6 °F 72% 29.95 in 10.0 mi Calm Calm - N/A   Clear
12:35 AM 53.6 °F 44.6 °F 72% 29.95 in 10.0 mi Calm Calm - N/A   Clear
12:36 AM 53.6 °F 44.6 °F 72% 29.95 in 10.0 mi Calm Calm - N/A   Scattered Clouds
12:59 AM 53.6 °F 44.6 °F 72% 29.94 in 10.0 mi Calm Calm - N/A   Scattered Clouds
1:16 AM 55.4 °F 46.4 °F 72% 29.94 in 10.0 mi Calm Calm - N/A   Mostly Cloudy
1:35 AM 55.4 °F 48.2 °F 77% 29.93 in 10.0 mi Calm Calm - N/A   Overcast
1:55 AM 55.4 °F 46.4 °F 72% 29.92 in 10.0 mi Calm Calm - N/A   Overcast
1:56 AM 57.2 °F 46.4 °F 67% 29.92 in 10.0 mi Calm Calm - N/A   Overcast
2:15 AM 59.0 °F 42.8 °F 55% 29.91 in 10.0 mi SSE 4.6 mph - N/A   Scattered Clouds
2:20 AM 59.0 °F 44.6 °F 59% 29.91 in 10.0 mi SSE 3.5 mph - N/A   Scattered Clouds
2:37 AM 57.2 °F 42.8 °F 59% 29.91 in 10.0 mi Calm Calm - N/A   Scattered Clouds
2:55 AM 59.0 °F 41.0 °F 51% 29.90 in 10.0 mi South 4.6 mph - N/A   Mostly Cloudy
3:15 AM 60.8 °F 39.2 °F 45% 29.89 in 10.0 mi SSW 6.9 mph - N/A   Mostly Cloudy
3:16 AM 60.8 °F 39.2 °F 45% 29.89 in 10.0 mi SSW 5.8 mph - N/A   Mostly Cloudy
3:35 AM 60.8 °F 39.2 °F 45% 29.89 in 10.0 mi SSW 4.6 mph - N/A   Scattered Clouds
3:36 AM 60.8 °F 37.4 °F 42% 29.89 in 10.0 mi SW 4.6 mph - N/A   Scattered Clouds
3:58 AM 59.0 °F 42.8 °F 55% 29.88 in 10.0 mi SSW 8.1 mph - N/A Rain Light Rain
4:16 AM 59.0 °F 42.8 °F 55% 29.86 in 10.0 mi SSW 4.6 mph - N/A   Mostly Cloudy
4:35 AM 59.0 °F 42.8 °F 55% 29.86 in 10.0 mi South 3.5 mph - N/A   Scattered Clouds
4:55 AM 59.0 °F 44.6 °F 59% 29.86 in 10.0 mi Calm Calm - N/A   Scattered Clouds
4:56 AM 59.0 °F 44.6 °F 59% 29.86 in 10.0 mi Calm Calm - N/A   Clear
5:15 AM 59.0 °F 44.6 °F 59% 29.84 in 10.0 mi South 4.6 mph - N/A   Scattered Clouds
5:37 AM 60.8 °F 44.6 °F 55% 29.82 in 10.0 mi SSW 5.8 mph - N/A   Scattered Clouds
5:56 AM 60.8 °F 44.6 °F 55% 29.82 in 10.0 mi SW 10.4 mph 17.3 mph N/A   Clear
6:15 AM 62.6 °F 44.6 °F 52% 29.81 in 10.0 mi SW 13.8 mph 18.4 mph N/A   Clear
6:16 AM 62.6 °F 44.6 °F 52% 29.81 in 10.0 mi SW 10.4 mph 18.4 mph N/A   Clear
6:35 AM 62.6 °F 44.6 °F 52% 29.82 in 10.0 mi SW 11.5 mph 19.6 mph N/A   Clear
6:36 AM 62.6 °F 44.6 °F 52% 29.82 in 10.0 mi SW 12.7 mph 19.6 mph N/A   Clear
6:59 AM 62.6 °F 46.4 °F 55% 29.82 in 10.0 mi SW 12.7 mph 18.4 mph N/A   Clear
7:16 AM 62.6 °F 46.4 °F 55% 29.81 in 10.0 mi SW 9.2 mph - N/A   Clear
7:35 AM 62.6 °F 46.4 °F 55% 29.81 in 10.0 mi SW 9.2 mph 16.1 mph N/A   Clear
7:55 AM 62.6 °F 48.2 °F 59% 29.81 in 10.0 mi SW 5.8 mph 16.1 mph N/A   Clear
7:56 AM 62.6 °F 48.2 °F 59% 29.81 in 10.0 mi SW 6.9 mph - N/A   Clear
8:19 AM 64.4 °F 50.0 °F 59% 29.81 in 10.0 mi SW 8.1 mph - N/A   Scattered Clouds
8:36 AM 66.2 °F 50.0 °F 56% 29.80 in 10.0 mi SW 5.8 mph - N/A   Scattered Clouds
8:56 AM 68.0 °F 51.8 °F 56% 29.80 in 10.0 mi SW 6.9 mph - N/A   Scattered Clouds
9:15 AM 69.8 °F 51.8 °F 53% 29.79 in 10.0 mi SW 8.1 mph - N/A   Mostly Cloudy
9:16 AM 69.8 °F 51.8 °F 53% 29.79 in 10.0 mi SW 6.9 mph - N/A   Mostly Cloudy
9:35 AM 69.8 °F 51.8 °F 53% 29.79 in 10.0 mi SW 3.5 mph - N/A   Mostly Cloudy
9:40 AM 69.8 °F 51.8 °F 53% 29.78 in 10.0 mi SW 8.1 mph - N/A   Mostly Cloudy
9:57 AM 69.8 °F 50.0 °F 49% 29.78 in 10.0 mi SW 8.1 mph 18.4 mph N/A   Scattered Clouds
10:15 AM 69.8 °F 50.0 °F 49% 29.77 in 10.0 mi SW 11.5 mph 20.7 mph N/A Rain Light Rain
10:35 AM 69.8 °F 50.0 °F 49% 29.77 in 10.0 mi WSW 10.4 mph 17.3 mph N/A   Mostly Cloudy
10:55 AM 73.4 °F 53.6 °F 50% 29.77 in 10.0 mi SW 6.9 mph 16.1 mph N/A   Mostly Cloudy
10:56 AM 73.4 °F 53.6 °F 50% 29.76 in 10.0 mi SW 5.8 mph 16.1 mph N/A   Mostly Cloudy
11:19 AM 73.4 °F 53.6 °F 50% 29.76 in 10.0 mi SW 9.2 mph 20.7 mph N/A   Mostly Cloudy
11:36 AM 69.8 °F 55.4 °F 60% 29.75 in 7.0 mi SW 4.6 mph - 0.01 in Rain , Thunderstorm Light Thunderstorms and Rain
11:55 AM 73.4 °F 57.2 °F 57% 29.74 in 10.0 mi SSW 4.6 mph - 0.01 in   Mostly Cloudy
11:56 AM 73.4 °F 57.2 °F 57% 29.74 in 10.0 mi SSW 3.5 mph - N/A   Scattered Clouds
12:15 PM 77.0 °F 53.6 °F 44% 29.73 in 10.0 mi WSW 12.7 mph 24.2 mph N/A   Scattered Clouds
12:16 PM 77.0 °F 53.6 °F 44% 29.72 in 10.0 mi WSW 10.4 mph 24.2 mph N/A   Scattered Clouds
12:35 PM 69.8 °F 57.2 °F 64% 29.74 in 5.0 mi WSW 9.2 mph 23.0 mph 0.13 in Rain Heavy Rain
12:39 PM 69.8 °F 59.0 °F 68% 29.74 in 4.0 mi WNW 8.1 mph 20.7 mph 0.15 in Rain Rain
12:56 PM 68.0 °F 59.0 °F 73% 29.74 in 10.0 mi Calm Calm - N/A   Overcast
1:16 PM 69.8 °F 55.4 °F 60% 29.75 in 7.0 mi West 16.1 mph 26.5 mph 0.02 in Rain Rain
1:35 PM 69.8 °F 59.0 °F 68% 29.73 in 10.0 mi Calm Calm - 0.06 in Rain Light Rain
1:36 PM 69.8 °F 59.0 °F 68% 29.73 in 10.0 mi West 3.5 mph - 0.06 in Rain Light Rain
1:55 PM 69.8 °F 59.0 °F 68% 29.73 in 10.0 mi SW 8.1 mph - 0.06 in   Overcast
2:17 PM 71.6 °F 59.0 °F 64% 29.72 in 10.0 mi SW 4.6 mph - N/A   Mostly Cloudy
2:35 PM 73.4 °F 59.0 °F 61% 29.72 in 10.0 mi SW 10.4 mph - N/A   Mostly Cloudy
2:55 PM 73.4 °F 57.2 °F 57% 29.70 in 10.0 mi WSW 11.5 mph 24.2 mph N/A   Mostly Cloudy
2:56 PM 73.4 °F 57.2 °F 57% 29.70 in 10.0 mi SW 10.4 mph 24.2 mph N/A   Mostly Cloudy
3:15 PM 77.0 °F 59.0 °F 54% 29.70 in 10.0 mi SW 8.1 mph 21.9 mph N/A   Mostly Cloudy
3:16 PM 77.0 °F 59.0 °F 54% 29.69 in 10.0 mi SW 4.6 mph 21.9 mph N/A   Mostly Cloudy
3:38 PM 77.0 °F 57.2 °F 50% 29.70 in 10.0 mi WSW 10.4 mph 19.6 mph N/A   Overcast
3:56 PM 77.0 °F 59.0 °F 54% 29.69 in 10.0 mi WSW 12.7 mph 19.6 mph N/A   Overcast
4:15 PM 77.0 °F 59.0 °F 54% 29.69 in 10.0 mi SW 8.1 mph 18.4 mph N/A   Overcast
4:16 PM 77.0 °F 59.0 °F 54% 29.69 in 10.0 mi SW 6.9 mph 18.4 mph N/A   Overcast
4:35 PM 77.0 °F 59.0 °F 54% 29.67 in 10.0 mi WSW 12.7 mph 16.1 mph N/A   Overcast
4:36 PM 77.0 °F 59.0 °F 54% 29.68 in 10.0 mi SW 10.4 mph 16.1 mph N/A   Overcast
4:55 PM 77.0 °F 59.0 °F 54% 29.67 in 10.0 mi SW 10.4 mph 21.9 mph N/A   Mostly Cloudy
5:17 PM 77.0 °F 57.2 °F 50% 29.67 in 10.0 mi SW 12.7 mph 20.7 mph N/A   Scattered Clouds
5:36 PM 77.0 °F 57.2 °F 50% 29.67 in 10.0 mi SW 10.4 mph 20.7 mph N/A   Clear
5:55 PM 77.0 °F 57.2 °F 50% 29.68 in 10.0 mi SW 9.2 mph 20.7 mph N/A   Scattered Clouds
5:56 PM 77.0 °F 57.2 °F 50% 29.68 in 10.0 mi SW 6.9 mph 12.7 mph N/A   Scattered Clouds
6:15 PM 77.0 °F 59.0 °F 54% 29.67 in 10.0 mi WSW 10.4 mph 21.9 mph N/A   Mostly Cloudy
6:16 PM 77.0 °F 59.0 °F 54% 29.67 in 10.0 mi SW 9.2 mph 21.9 mph N/A   Mostly Cloudy
6:38 PM 73.4 °F 57.2 °F 57% 29.67 in 10.0 mi SW 13.8 mph 19.6 mph N/A   Scattered Clouds
6:56 PM 73.4 °F 57.2 °F 57% 29.67 in 10.0 mi SSW 10.4 mph 18.4 mph N/A   Mostly Cloudy
7:15 PM 73.4 °F 55.4 °F 53% 29.67 in 10.0 mi SW 10.4 mph 17.3 mph N/A   Mostly Cloudy
7:16 PM 73.4 °F 55.4 °F 53% 29.67 in 10.0 mi SW 9.2 mph 17.3 mph N/A   Mostly Cloudy
7:35 PM 73.4 °F 59.0 °F 61% 29.68 in 10.0 mi SW 6.9 mph 17.3 mph N/A   Overcast
7:36 PM 73.4 °F 59.0 °F 61% 29.68 in 10.0 mi SW 5.8 mph 17.3 mph N/A   Overcast
7:55 PM 73.4 °F 59.0 °F 61% 29.69 in 10.0 mi SSW 3.5 mph - N/A   Mostly Cloudy
7:59 PM 73.4 °F 59.0 °F 61% 29.69 in 10.0 mi SSW 4.6 mph - N/A   Mostly Cloudy
8:17 PM 73.4 °F 59.0 °F 61% 29.69 in 10.0 mi SSW 4.6 mph - N/A   Scattered Clouds
8:35 PM 73.4 °F 59.0 °F 61% 29.69 in 10.0 mi SSW 3.5 mph - N/A   Scattered Clouds
8:55 PM 71.6 °F 57.2 °F 60% 29.69 in 10.0 mi SSW 3.5 mph - N/A   Scattered Clouds
8:56 PM 71.6 °F 57.2 °F 60% 29.69 in 10.0 mi SSW 3.5 mph - N/A   Scattered Clouds
9:15 PM 71.6 °F 57.2 °F 60% 29.68 in 10.0 mi Calm Calm - N/A   Clear
9:39 PM 71.6 °F 57.2 °F 60% 29.69 in 10.0 mi South 3.5 mph - N/A   Clear